Location: Alpine
(43.1636°N, 111.0180°W)
Time: 04:44:16
(UTC+00:00)

Tiros 1 despin weight - Pass Details

Date: 04 June 2022
Orbit: 591 x 639 km, 48.2° (Epoch: 30 June)

Event Time Altitude Azimuth Distance (km) Brightness Sun altitude
Rises 21:11:20 0° 217° (SW) 2,912 ? 59.4°
Reaches altitude 10° 21:13:47 10° 209° (SSW) 2,001 ? 59.1°
Maximum altitude 21:18:00 36° 143° (SE) 992 ? 58.4°
Drops below altitude 10° 21:22:10 10° 76° (ENE) 1,984 ? 57.8°
Sets 21:24:36 0° 68° (ENE) 2,884 ? 57.4°
